GW5741 Weather Reports


Display with metric or nautical units.
time (UTC)temp
F
wind
direction
speed
MPH
gust
MPH
rain 1hr
in
rain 24hr
in
rain mn
in
humidity
%
barometer
mb
20260510225449 65 135 0.0 2.0 0.00 0.00 0.00 82 1013.4
20260510224949 66 0 0.0 0.0 0.00 0.00 0.00 82 1013.3
20260510224450 66 114 0.0 1.0 0.00 0.00 0.00 84 1013.2
20260510223949 66 122 0.0 1.0 0.00 0.00 0.00 84 1013.1
20260510223449 66 91 1.0 3.0 0.00 0.00 0.00 84 1013.1
20260510222950 66 160 0.0 0.0 0.00 0.00 0.00 84 1013.1
20260510222449 66 132 0.0 2.0 0.00 0.00 0.00 86 1013.0
20260510221949 66 77 0.0 1.0 0.00 0.00 0.00 87 1013.1
20260510221449 65 0 0.0 0.0 0.00 0.00 0.00 86 1013.0
20260510220949 65 0 0.0 0.0 0.00 0.00 0.00 87 1013.2
20260510220450 65 0 0.0 0.0 0.00 0.00 0.00 88 1013.3
20260510215949 65 0 0.0 0.0 0.00 0.00 0.00 88 1013.3
20260510215449 65 119 0.0 1.0 0.00 0.00 0.00 88 1013.2
20260510214949 65 0 0.0 0.0 0.00 0.00 0.00 87 1013.1
20260510214450 66 138 0.0 0.0 0.00 0.00 0.00 88 1013.2
20260510213949 66 0 0.0 0.0 0.00 0.00 0.00 86 1013.1
20260510213449 66 0 0.0 0.0 0.00 0.00 0.00 87 1013.1
20260510212949 66 0 0.0 0.0 0.00 0.00 0.00 87 1013.0
20260510212450 67 0 0.0 0.0 0.00 0.00 0.00 85 1012.9
20260510211949 67 139 0.0 1.0 0.00 0.00 0.00 84 1012.9
20260510211449 67 0 0.0 0.0 0.00 0.00 0.00 84 1012.8
20260510210950 67 0 0.0 0.0 0.00 0.00 0.00 84 1012.8
20260510210449 67 0 0.0 0.0 0.00 0.00 0.00 81 1012.8
20260510205950 67 0 0.0 0.0 0.00 0.00 0.00 82 1012.7
20260510205450 67 119 0.0 0.0 0.00 0.00 0.00 82 1012.7
20260510204950 67 0 0.0 0.0 0.00 0.00 0.00 80 1012.6
20260510204450 67 145 0.0 1.0 0.00 0.00 0.00 81 1012.7
20260510203949 67 0 0.0 0.0 0.00 0.00 0.00 79 1012.7
20260510203450 67 90 0.0 1.0 0.00 0.00 0.00 79 1012.6
20260510202950 67 0 0.0 0.0 0.00 0.00 0.00 81 1012.6
20260510202449 68 135 0.0 1.0 0.00 0.00 0.00 79 1012.7
20260510201949 68 117 0.0 1.0 0.00 0.00 0.00 78 1012.7
20260510201449 68 88 0.0 1.0 0.00 0.00 0.00 78 1012.7
20260510200949 67 115 0.0 1.0 0.00 0.00 0.00 77 1012.7
20260510200449 67 68 0.0 2.0 0.00 0.00 0.00 78 1012.6
20260510195949 66 72 0.0 2.0 0.00 0.00 0.00 81 1012.6
20260510195449 66 68 2.0 4.0 0.00 0.00 0.00 80 1012.7
20260510194950 66 0 0.0 0.0 0.00 0.00 0.00 80 1012.7
20260510194452 67 59 1.0 3.0 0.00 0.00 0.00 78 1012.8
20260510193949 66 14 0.0 0.0 0.00 0.00 0.00 81 1012.8
20260510193449 66 59 0.0 2.0 0.00 0.00 0.00 82 1012.7
20260510192949 66 80 1.0 3.0 0.00 0.00 0.00 82 1012.8
20260510192452 66 64 1.0 3.0 0.00 0.00 0.00 82 1012.8
20260510191949 67 0 0.0 0.0 0.00 0.00 0.00 81 1013.0
20260510191449 66 0 0.0 0.0 0.00 0.00 0.00 82 1013.0
20260510190949 66 128 1.0 2.0 0.00 0.00 0.00 82 1013.0
20260510190449 66 0 0.0 0.0 0.00 0.00 0.00 83 1013.1
20260510185950 67 277 0.0 1.0 0.00 0.00 0.00 82 1013.0
20260510185450 66 90 0.0 2.0 0.00 0.00 0.00 82 1013.1
20260510184950 66 0 0.0 0.0 0.00 0.00 0.00 82 1013.2
20260510184449 66 0 0.0 0.0 0.00 0.00 0.00 81 1013.2
20260510183949 67 122 0.0 2.0 0.00 0.00 0.00 82 1013.1
20260510183449 67 95 0.0 2.0 0.00 0.00 0.00 81 1013.1
20260510182950 67 124 1.0 2.0 0.00 0.00 0.00 80 1013.0
20260510182449 67 0 0.0 0.0 0.00 0.00 0.00 82 1013.1
20260510181508 68 246 0.0 0.0 0.00 0.00 0.00 80 1013.0
20260510180949 68 0 0.0 0.0 0.00 0.00 0.00 80 1013.0
20260510180450 68 88 0.0 2.0 0.00 0.00 0.00 77 1013.0
20260510175949 69 99 0.0 2.0 0.00 0.00 0.00 78 1013.0
20260510175449 69 0 0.0 0.0 0.00 0.00 0.00 76 1013.1
20260510174949 69 0 0.0 0.0 0.00 0.00 0.00 75 1013.1
20260510174449 68 273 0.0 3.0 0.00 0.00 0.00 79 1013.2
20260510173949 67 267 0.0 2.0 0.00 0.00 0.00 79 1013.3
20260510173449 67 98 1.0 2.0 0.00 0.00 0.00 79 1013.3
20260510172949 66 130 0.0 2.0 0.00 0.00 0.00 83 1013.2
20260510172449 65 97 0.0 2.0 0.00 0.00 0.00 83 1013.3
20260510171949 65 158 1.0 2.0 0.00 0.00 0.00 82 1013.3
20260510171450 64 41 1.0 2.0 0.00 0.00 0.00 83 1013.3
20260510170950 64 116 0.0 3.0 0.00 0.00 0.00 85 1013.3
20260510170450 63 0 0.0 0.0 0.00 0.00 0.00 88 1013.4
20260510165950 63 105 0.0 1.0 0.00 0.00 0.00 87 1013.5
20260510165451 63 0 0.0 0.0 0.00 0.00 0.00 87 1013.4
20260510164949 62 115 1.0 2.0 0.00 0.00 0.00 88 1013.3
20260510164450 62 61 2.0 4.0 0.00 0.00 0.00 87 1013.4
20260510163951 62 0 0.0 0.0 0.00 0.00 0.00 89 1013.6
20260510163450 61 86 0.0 2.0 0.00 0.00 0.00 93 1013.6
20260510162949 60 89 0.0 0.0 0.00 0.00 0.00 92 1013.6
20260510162452 60 264 0.0 2.0 0.00 0.00 0.00 92 1013.6
20260510161949 59 112 1.0 3.0 0.00 0.00 0.00 94 1013.6
20260510161448 59 82 0.0 2.0 0.00 0.00 0.00 94 1013.7
20260510160949 59 0 0.0 0.0 0.00 0.00 0.00 94 1013.7
20260510160450 59 56 1.0 2.0 0.00 0.00 0.00 95 1013.7
20260510155949 59 23 0.0 0.0 0.00 0.00 0.00 93 1013.7
20260510155449 59 193 0.0 2.0 0.00 0.00 0.00 94 1013.7
20260510154949 59 0 0.0 0.0 0.00 0.00 0.00 95 1013.8
20260510154449 59 0 0.0 0.0 0.00 0.00 0.00 95 1013.6
20260510153949 58 0 0.0 0.0 0.00 0.00 0.00 95 1013.7
20260510153450 58 263 0.0 2.0 0.00 0.00 0.00 96 1013.7
20260510152949 58 82 0.0 1.0 0.00 0.00 0.00 97 1013.8
20260510152449 57 94 1.0 1.0 0.00 0.00 0.00 98 1013.9
20260510151949 57 0 0.0 0.0 0.00 0.00 0.00 98 1013.9
20260510151449 57 0 0.0 0.0 0.00 0.00 0.00 99 1014.0
20260510150950 57 138 1.0 1.0 0.00 0.00 0.00 98 1014.0
20260510150449 56 104 1.0 1.0 0.00 0.00 0.00 99 1014.0
20260510145949 56 0 0.0 0.0 0.00 0.00 0.00 100 1013.9
20260510145449 56 104 0.0 1.0 0.00 0.00 0.00 99 1014.0
20260510144949 56 0 0.0 0.0 0.00 0.00 0.00 99 1014.0
20260510144449 55 0 0.0 0.0 0.00 0.00 0.00 99 1013.9
20260510143951 55 67 0.0 1.0 0.00 0.00 0.00 100 1013.8
20260510143449 55 0 0.0 0.0 0.00 0.00 0.00 99 1013.8
20260510142949 55 53 1.0 2.0 0.00 0.00 0.00 99 1013.7
20260510142449 55 76 0.0 0.0 0.00 0.00 0.00 99 1013.6
20260510141949 55 49 1.0 2.0 0.00 0.00 0.00 99 1013.6
20260510141450 55 0 0.0 0.0 0.00 0.00 0.00 99 1013.5
20260510140949 55 61 1.0 2.0 0.00 0.00 0.00 99 1013.6
20260510140450 55 0 0.0 0.0 0.00 0.00 0.00 99 1013.4
20260510135950 55 0 0.0 0.0 0.00 0.00 0.00 99 1013.4
20260510135449 54 89 0.0 1.0 0.00 0.00 0.00 99 1013.5
20260510134949 54 69 0.0 0.0 0.00 0.00 0.00 99 1013.5
20260510134450 54 60 0.0 0.0 0.00 0.00 0.00 99 1013.5
20260510133949 54 0 0.0 0.0 0.00 0.00 0.00 99 1013.5
20260510133449 53 0 0.0 0.0 0.00 0.00 0.00 99 1013.4
20260510132950 53 59 0.0 0.0 0.00 0.00 0.00 99 1013.4
20260510132449 53 0 0.0 0.0 0.00 0.00 0.00 99 1013.3
20260510131949 53 56 0.0 0.0 0.00 0.00 0.00 99 1013.3
20260510131449 53 30 0.0 2.0 0.00 0.00 0.00 99 1013.2
20260510130949 53 0 0.0 0.0 0.00 0.00 0.00 99 1013.3
20260510130450 53 0 0.0 0.0 0.00 0.00 0.00 99 1013.3
20260510125949 53 60 0.0 1.0 0.00 0.00 0.00 99 1013.3
20260510125450 53 0 0.0 0.0 0.00 0.00 0.00 99 1013.3
20260510124949 53 0 0.0 0.0 0.00 0.00 0.00 99 1013.2
20260510124449 53 0 0.0 0.0 0.00 0.00 0.00 99 1013.1
20260510123949 53 0 0.0 0.0 0.00 0.00 0.00 99 1013.0
20260510123449 53 0 0.0 0.0 0.00 0.00 0.00 99 1012.9
20260510122950 53 0 0.0 0.0 0.00 0.00 0.00 99 1012.9
20260510122450 53 0 0.0 0.0 0.00 0.00 0.00 99 1012.9
20260510121949 53 0 0.0 0.0 0.00 0.00 0.00 99 1012.9
20260510121449 53 0 0.0 0.0 0.00 0.00 0.00 99 1012.8
20260510120949 53 0 0.0 0.0 0.00 0.00 0.00 99 1012.7
20260510120451 53 60 0.0 2.0 0.00 0.00 0.00 99 1012.7
20260510115950 52 0 0.0 0.0 0.00 0.00 0.00 99 1012.7
20260510115450 52 53 0.0 1.0 0.00 0.00 0.00 99 1012.7
20260510114949 52 67 1.0 1.0 0.00 0.00 0.00 99 1012.7
20260510114449 52 79 2.0 3.0 0.00 0.00 0.00 99 1012.7
20260510113949 52 70 1.0 1.0 0.00 0.00 0.00 99 1012.6
20260510113449 52 60 1.0 2.0 0.00 0.00 0.00 99 1012.4
20260510112949 51 0 0.0 0.0 0.00 0.00 0.00 99 1012.3
20260510112449 51 63 0.0 0.0 0.00 0.00 0.00 99 1012.3
20260510111949 51 58 1.0 2.0 0.00 0.00 0.00 99 1012.3
20260510111450 51 68 1.0 2.0 0.00 0.00 0.00 99 1012.2
20260510110949 51 0 0.0 0.0 0.00 0.00 0.00 99 1012.2
20260510110449 51 0 0.0 0.0 0.00 0.00 0.00 99 1012.3
20260510105950 51 63 1.0 2.0 0.00 0.00 0.00 99 1012.4
20260510105450 51 62 0.0 0.0 0.00 0.00 0.00 99 1012.4
20260510104949 51 0 0.0 0.0 0.00 0.00 0.00 99 1012.4
20260510104449 51 69 0.0 1.0 0.00 0.00 0.00 99 1012.4
20260510103949 51 0 0.0 0.0 0.00 0.00 0.00 99 1012.3
20260510103449 51 0 0.0 0.0 0.00 0.00 0.00 99 1012.3
20260510102949 51 61 1.0 2.0 0.00 0.00 0.00 99 1012.2
20260510102449 50 69 2.0 3.0 0.00 0.00 0.00 99 1012.1
20260510101949 50 0 0.0 0.0 0.00 0.00 0.00 99 1012.3
20260510101451 50 0 0.0 0.0 0.00 0.00 0.00 99 1012.3
20260510100950 50 0 0.0 0.0 0.00 0.00 0.00 99 1012.4
20260510100449 50 0 0.0 0.0 0.00 0.00 0.00 99 1012.2
20260510095950 51 0 0.0 0.0 0.00 0.00 0.00 99 1012.1
20260510095450 51 0 0.0 0.0 0.00 0.00 0.00 99 1012.1
20260510094949 51 50 0.0 1.0 0.00 0.00 0.00 99 1012.1
20260510094454 51 78 1.0 1.0 0.00 0.00 0.00 99 1012.3
20260510093950 51 0 0.0 0.0 0.00 0.00 0.00 99 1012.4
20260510093449 51 0 0.0 0.0 0.00 0.00 0.00 99 1012.4
20260510092950 51 86 0.0 0.0 0.00 0.00 0.00 99 1012.4
20260510092449 51 0 0.0 0.0 0.00 0.00 0.00 99 1012.4
20260510091949 51 0 0.0 0.0 0.00 0.00 0.00 99 1012.4
20260510091450 51 0 0.0 0.0 0.00 0.00 0.00 99 1012.5
20260510090949 51 0 0.0 0.0 0.00 0.00 0.00 99 1012.4
20260510090451 51 0 0.0 0.0 0.00 0.00 0.00 99 1012.4
20260510085949 51 0 0.0 0.0 0.00 0.00 0.00 99 1012.5
20260510085449 51 0 0.0 0.0 0.00 0.00 0.00 99 1012.5
20260510084950 51 351 0.0 1.0 0.00 0.00 0.00 99 1012.6
20260510084449 51 0 0.0 0.0 0.00 0.00 0.00 99 1012.6
20260510083950 51 0 0.0 0.0 0.00 0.00 0.00 99 1012.6
20260510083450 51 0 0.0 0.0 0.00 0.00 0.00 99 1012.7
20260510082949 51 0 0.0 0.0 0.00 0.00 0.00 99 1012.5
20260510082449 51 107 1.0 1.0 0.00 0.00 0.00 99 1012.4
20260510081949 51 28 1.0 1.0 0.00 0.00 0.00 99 1012.4
20260510081449 51 33 0.0 1.0 0.00 0.00 0.00 99 1012.3
20260510080949 51 0 0.0 0.0 0.00 0.00 0.00 99 1011.9
20260510080449 51 87 0.0 0.0 0.00 0.00 0.00 99 1011.7
20260510075949 51 59 0.0 0.0 0.00 0.00 0.00 99 1011.6
20260510075449 51 0 0.0 0.0 0.00 0.00 0.00 99 1011.5
20260510074950 51 0 0.0 0.0 0.00 0.00 0.00 99 1011.5
20260510074449 51 53 1.0 2.0 0.00 0.00 0.00 99 1011.6
20260510073949 51 46 1.0 1.0 0.00 0.00 0.00 99 1011.5
20260510073449 51 0 0.0 0.0 0.00 0.00 0.00 99 1011.5
20260510072949 51 0 0.0 0.0 0.00 0.00 0.00 99 1011.6
20260510072450 51 0 0.0 0.0 0.00 0.00 0.00 99 1011.7
20260510071950 51 53 0.0 1.0 0.00 0.00 0.00 99 1011.7
20260510071449 51 0 0.0 0.0 0.00 0.00 0.00 99 1011.7
20260510070950 51 24 0.0 0.0 0.00 0.00 0.00 99 1011.7
20260510070449 51 0 0.0 0.0 0.00 0.00 0.00 99 1011.6
20260510065949 51 0 0.0 0.0 0.00 0.00 0.00 99 1011.6
20260510065449 52 0 0.0 0.0 0.00 0.00 0.00 99 1011.6
20260510064949 52 0 0.0 0.0 0.00 0.00 0.00 99 1011.6
20260510064449 52 0 0.0 0.0 0.00 0.00 0.00 99 1011.6
20260510063949 52 53 0.0 0.0 0.00 0.00 0.00 99 1011.7
20260510063450 52 0 0.0 0.0 0.00 0.00 0.00 99 1011.7
20260510062949 52 0 0.0 0.0 0.00 0.00 0.00 99 1011.6
20260510062450 52 0 0.0 0.0 0.00 0.00 0.00 99 1011.6
20260510061949 52 0 0.0 0.0 0.00 0.00 0.00 99 1011.5
20260510061449 52 60 0.0 1.0 0.00 0.00 0.00 99 1011.4
20260510060949 52 0 0.0 0.0 0.00 0.00 0.00 99 1011.4
20260510060450 52 0 0.0 0.0 0.00 0.00 0.00 99 1011.4
20260510055949 51 0 0.0 0.0 0.00 0.00 0.00 99 1011.4
20260510055449 51 66 0.0 2.0 0.00 0.00 0.00 99 1011.4
20260510054949 51 0 0.0 0.0 0.00 0.00 0.00 99 1011.5
20260510054450 51 0 0.0 0.0 0.00 0.00 0.00 99 1011.4
20260510053949 51 0 0.0 0.0 0.00 0.00 0.00 99 1011.5
20260510053449 51 0 0.0 0.0 0.00 0.00 0.00 99 1011.6
20260510052949 51 0 0.0 0.0 0.00 0.00 0.00 99 1011.6
20260510052452 51 0 0.0 0.0 0.00 0.00 0.00 99 1011.7
20260510051949 51 71 0.0 0.0 0.00 0.00 0.00 99 1011.6
20260510051449 51 0 0.0 0.0 0.00 0.00 0.00 99 1011.7
20260510050949 51 0 0.0 0.0 0.00 0.00 0.00 99 1011.7
20260510050450 51 0 0.0 0.0 0.00 0.00 0.00 99 1011.7
20260510045950 51 0 0.0 0.0 0.00 0.00 0.00 99 1011.7
20260510045449 51 0 0.0 0.0 0.00 0.00 0.00 99 1011.6
20260510044949 51 229 0.0 0.0 0.00 0.00 0.00 99 1011.7
20260510044450 51 0 0.0 0.0 0.00 0.00 0.00 99 1011.7
20260510043949 51 0 0.0 0.0 0.00 0.00 0.00 99 1011.7
20260510043449 51 0 0.0 0.0 0.00 0.00 0.00 99 1011.7
20260510042949 52 0 0.0 0.0 0.00 0.00 0.00 99 1011.6
20260510042449 52 0 0.0 0.0 0.00 0.00 0.00 99 1011.7
20260510041949 52 49 0.0 0.0 0.00 0.00 0.00 99 1011.7
20260510041449 52 0 0.0 0.0 0.00 0.00 0.00 99 1011.6
20260510040949 52 0 0.0 0.0 0.00 0.00 0.00 99 1011.5
20260510040449 52 0 0.0 0.0 0.00 0.00 0.00 99 1011.4
20260510035949 52 0 0.0 0.0 0.00 0.00 0.53 99 1011.3
20260510035449 52 0 0.0 0.0 0.00 0.00 0.53 99 1011.3
20260510034949 52 0 0.0 0.0 0.00 0.00 0.53 99 1011.3
20260510034449 52 62 0.0 0.0 0.00 0.00 0.53 99 1011.2
20260510033949 52 0 0.0 0.0 0.00 0.00 0.53 99 1011.2
20260510033449 52 0 0.0 0.0 0.00 0.00 0.53 99 1011.2
20260510032950 52 0 0.0 0.0 0.00 0.00 0.53 99 1011.3
20260510032449 52 0 0.0 0.0 0.00 0.00 0.53 99 1011.2
20260510031949 52 0 0.0 0.0 0.00 0.00 0.53 99 1011.2
20260510031449 52 0 0.0 0.0 0.00 0.00 0.53 99 1011.3
20260510030949 52 0 0.0 0.0 0.00 0.00 0.53 99 1011.3
20260510030449 52 0 0.0 0.0 0.00 0.00 0.53 99 1011.4
20260510025949 53 37 0.0 0.0 0.00 0.00 0.53 99 1011.4
20260510025450 53 54 0.0 0.0 0.00 0.00 0.53 99 1011.5
20260510024949 53 0 0.0 0.0 0.00 0.00 0.53 99 1011.4
20260510024450 53 0 0.0 0.0 0.00 0.00 0.53 99 1011.5
20260510023950 53 0 0.0 0.0 0.00 0.00 0.53 99 1011.5
20260510023449 53 0 0.0 0.0 0.00 0.00 0.53 99 1011.5
20260510022949 53 0 0.0 0.0 0.00 0.00 0.53 99 1011.5
20260510022450 53 0 0.0 0.0 0.00 0.00 0.53 99 1011.5
20260510021949 53 92 0.0 0.0 0.00 0.00 0.53 99 1011.5
20260510021449 53 76 0.0 0.0 0.00 0.00 0.53 99 1011.4
20260510020950 53 0 0.0 0.0 0.00 0.00 0.53 99 1011.5
20260510020449 53 0 0.0 0.0 0.00 0.00 0.53 99 1011.4
20260510015950 53 0 0.0 0.0 0.00 0.00 0.53 99 1011.5
20260510015450 53 79 0.0 0.0 0.00 0.00 0.53 99 1011.4
20260510014949 53 60 1.0 2.0 0.00 0.00 0.53 99 1011.4
20260510014450 53 0 0.0 0.0 0.00 0.00 0.53 99 1011.3
20260510013950 53 63 0.0 1.0 0.00 0.00 0.53 99 1011.4
20260510013449 53 0 0.0 0.0 0.00 0.00 0.53 99 1011.4
20260510012949 53 0 0.0 0.0 0.00 0.00 0.53 99 1011.2
20260510012449 53 0 0.0 0.0 0.00 0.00 0.53 99 1011.0
20260510011949 53 0 0.0 0.0 0.00 0.00 0.53 99 1011.0
20260510011449 53 102 0.0 0.0 0.00 0.00 0.53 99 1010.9
20260510010949 53 76 2.0 2.0 0.00 0.00 0.53 99 1010.7
20260510010449 53 67 1.0 3.0 0.00 0.00 0.53 99 1010.8
20260510005949 53 61 0.0 1.0 0.00 0.00 0.53 99 1010.8
20260510005449 53 74 0.0 1.0 0.00 0.00 0.53 99 1010.7
20260510004949 53 0 0.0 0.0 0.00 0.00 0.53 99 1010.7
20260510004449 53 0 0.0 0.0 0.00 0.00 0.53 99 1010.7
20260510003950 53 0 0.0 0.0 0.00 0.00 0.53 99 1010.7
20260510003449 53 0 0.0 0.0 0.00 0.00 0.53 99 1010.7
20260510002950 53 0 0.0 0.0 0.00 0.00 0.53 99 1010.7
20260510002449 53 0 0.0 0.0 0.00 0.00 0.53 99 1010.7
20260510001949 53 0 0.0 0.0 0.00 0.00 0.53 99 1010.6
20260510001449 54 0 0.0 0.0 0.00 0.00 0.53 99 1010.6
20260510000949 54 0 0.0 0.0 0.00 0.00 0.53 99 1010.5
20260510000449 54 0 0.0 0.0 0.00 0.00 0.53 99 1010.5
20260509235949 54 72 0.0 1.0 0.01 0.00 0.53 99 1010.5
20260509235450 54 70 0.0 1.0 0.04 0.00 0.53 99 1010.5
20260509234949 54 0 0.0 0.0 0.04 0.00 0.53 99 1010.6
20260509234449 54 0 0.0 0.0 0.08 0.00 0.53 99 1010.6
20260509233949 54 0 0.0 0.0 0.08 0.00 0.53 99 1010.6
20260509233449 54 106 0.0 0.0 0.10 0.00 0.53 99 1010.6
20260509232949 54 0 0.0 0.0 0.10 0.00 0.53 99 1010.7
20260509232449 54 52 0.0 1.0 0.12 0.00 0.53 99 1010.7
20260509231950 54 0 0.0 0.0 0.14 0.00 0.53 99 1010.6
20260509231450 54 0 0.0 0.0 0.14 0.00 0.53 99 1010.6
20260509230949 54 0 0.0 0.0 0.19 0.00 0.53 99 1010.5
20260509230449 54 58 0.0 1.0 0.19 0.00 0.53 99 1010.6
20260509225950 55 68 0.0 1.0 0.20 0.00 0.53 99 1010.6